Find Starlink 31077

NORAD ID: 58637 Int'l Des: 2023-203 Owner: SPXS Country: US Constellation: starlink operational
LEOCIRCULAR

現在のビュー

3D地球を読み込み中...

About Starlink 31077

Starlink 31077 (NORAD 58637) is a starlink constellation satellite (v2 mini) launched Dec 23, 2023 by SPXS of US. It operates in LEO, CIRCULAR orbit with a mass of 730.00 kg.

次回通過

Passes for default location (London). Set your location on the main map for personalized predictions.

高度履歴

Loading altitude history...

軌道要素

1 58637U 23203V 26235.32772340 .00001501 00000-0 64076-4 0 9999
2 58637 43.0010 206.2605 0001585 272.8363 87.2307 15.27579973150277
Epoch: Aug 23, 2026 • Age: 21 hours

現在のステータス

高度 483.5 km
遠地点 / 近地点 N/A
速度 7.63 km/s
衛星直下点 -4.23°S, 22.86°W
打ち上げ日 Dec 23, 2023
運用期間 2.6 years
タイプ internet

技術仕様

分類 Payload
質量 730.00 kg
乾燥質量 700.00 kg
総質量 730.00 kg
長さ 0.30 m
直径 4.10 m
スパン 29.00 m
形状 Box + pan
製造者 SPXS
バスタイプ Starlink V2M
フェーズステータス In Orbit
所有者/国 SPXS/US

Most Searched